Regional Weather Roundup
Issued by NWS Grand Forks, ND

Home | Current Version | Previous Version | Graphics & Text | Print | Product List | Glossary On
Versions: 1 2 3 4 5 6 7 8 9 10 11 12 13 14 15 16 17 18 19 20 21 22 23 24 25 26 27 28 29 30 31 32 33 34 35 36 37 38 39 40 41 42 43 44 45 46 47 48 49 50
000
ASUS43 KFGF 281010
RWRFGF
PRAIRIE TO PINES  WEATHER ROUNDUP
NATIONAL WEATHER SERVICE EASTERN NORTH DAKOTA/GRAND FORKS ND
400 AM CST TUE FEB 28 2017

 **SATELLITE DATA USED TO AUGMENT SKY COVER AT AUTOMATED STATIONS**
 *****  WEATHER ACROSS EASTERN NORTH DAKOTA  *****

CITY           SKY/WX    TMP DP  RH WIND       PRES   REMARKS
GRAND FORKS    CLOUDY    15   7  70 N13       29.93S WCI   1
GRAND FRKS AFB FLURRIES  13   7  78 N15       29.93F WCI  -3
DEVILS LAKE    CLOUDY     6   3  87 N7        29.92F WCI  -6
FARGO          FAIR      21  18  88 N14       29.84F WCI   8
WAHPETON ARPT  CLOUDY    27  19  74 N16       29.80F WCI  14
$$

 ***** WEATHER ACROSS CENTRAL AND WESTERN NORTH DAKOTA  *****

CITY           SKY/WX    TMP DP  RH WIND       PRES   REMARKS
BISMARCK       CLOUDY    20  17  88 NE9       29.83F WCI   9
MINOT          CLOUDY     6   2  83 N3        29.88F
JAMESTOWN      FAIR      14  11  87 N12       29.85F WCI   0
MINOT AFB      CLOUDY     5   1  85 SE3       29.88F
GARRISON         N/A      6   4  91 N5        29.84F WCI  -3
WILLISTON      CLOUDY    11   7  84 E6        29.82F WCI   1
DICKINSON      CLOUDY    12   9  87 NE9       29.73F WCI   0
HETTINGER      CLOUDY    19  17  92 E9        29.74S FOG     WCI   8
$$

 *****  OTHER AIRPORT OBSERVATIONS IN OUR AREA  *****

CITY           SKY/WX    TMP DP  RH WIND       PRES   REMARKS
WALHALLA       NOT AVBL
GRAFTON AIRPOR FAIR       7   1  78 N10       29.99R WCI  -8
VALLEY CITY AR FAIR      14  14 100 N8        29.87F WCI   3
CANDO          NOT AVBL
CAVALIER APRT    N/A      5   1  85 NW10      29.99S WCI -10
GWINNER        FAIR      21  19  93 N15       29.83S WCI   8
SHEYENNE NWR     N/A     19  15  86 N8        29.95S WCI   9
ROLLA          FAIR       0  -2  92 N6        29.91S WCI -12
 ***** THE ABOVE OBSERVATIONS ARE NON NWS ARE NOT QUALITY
       CONTROLLED AND MAY MIS-REPORT RAIN FOR SNOW...
$$

  *****  WEATHER ACROSS NORTHERN MINNESOTA  *****

CITY           SKY/WX    TMP DP  RH WIND       PRES   REMARKS
FLAG ISLAND    CLOUDY     9   5  85 N12       29.94S WCI  -6
WARROAD        FLURRIES  12   9  85 N8        29.93S WCI   1
ROSEAU         FLURRIES   5   1  85 N10       29.93S WCI -10
HALLOCK        FAIR       7   1  78 N8        29.96S WCI  -6
THF RVR FALLS  CLOUDY    19  15  84 NE12      29.89F WCI   7
BAUDETTE       CLOUDY    17  13  84 N9        29.90R WCI   6
WASKISH        CLOUDY    21  18  86 NE8       29.87S WCI  12
CROOKSTON      CLOUDY    19  16  86 NE9       29.91S WCI   9
GREENBUSH NDAW   N/A      0  -2  92 N5          N/A  WCI -10
$$
  *****  WEATHER ACROSS CENTRAL AND WEST MINNESOTA  *****

CITY           SKY/WX    TMP DP  RH WIND       PRES   REMARKS
FOSSTON        FAIR      18  12  79 N9        29.85S WCI   6
BEMIDJI        FAIR      22  14  70 N6        29.83R WCI  15
PARK RAPIDS    CLOUDY    27  14  58 N9        29.79S WCI  18
ELBOW LAKE     CLOUDY    30  27  89 N3        29.77F
WADENA         MOCLDY    28  23  80 N5        29.77F WCI  23
DETROIT LAKES  FAIR      27  19  74 NE6       29.80F WCI  20
MOORHEAD       FAIR      21  19  93 N14       29.84F WCI   8
FERGUS FALLS   MOCLDY    27  21  80 N8        29.82F WCI  18
MORRIS MN      MIX PCPN  30  28  93 N9        29.74F WCI  22
STAPLES        CLOUDY    30  27  86 CALM      29.77F
$$
  *****  WEATHER ELSEWHERE ACROSS MINNESOTA  *****

CITY           SKY/WX    TMP DP  RH WIND       PRES   REMARKS
DULUTH         LGT SNOW  29  26  89 E5        29.80S FOG     WCI  24
INTRNTL FALLS  CLOUDY    21  17  84 N7        29.88R WCI  12
ELY            FLURRIES  25  23  93 CALM      29.81S
CLOQUET        LGT SNOW  28  27  93 E3        29.81R
WHEATON        FLURRIES  27  23  86 N9        29.81S WCI  17
BRAINERD       CLOUDY    32  26  78 CALM      29.79R
HIBBING        CLOUDY    28  26  92 CALM      29.79F
ALEXANDRIA     CLOUDY    32  28  85 NE6       29.75F
SAINT CLOUD    FAIR      34  28  79 N5        29.76F
MINNEAPOLIS    CLOUDY    37  29  72 E5        29.73F
$$

  *****  WEATHER ACROSS SOUTH DAKOTA  *****

CITY           SKY/WX    TMP DP  RH WIND       PRES   REMARKS
SIOUX FALLS    CLOUDY    35  31  85 N8        29.65S
BROOKINGS      FAIR      31  28  89 NE9       29.68S WCI  23
WATERTOWN      LGT SNOW  27  25  92 NE10      29.70F FOG     WCI  17
HURON          LGT SNOW  33  30  88 N14       29.70S FOG     WCI  23
SISSETON         N/A     24  23  96 N13       29.78F WCI  12
ABERDEEN       FLURRIES  23  18  81 N17       29.77F WCI   9
MITCHELL       FAIR      32  30  92 N9        29.66F WCI  24
PIERRE         CLOUDY    28  25  88 NE12      29.73R WCI  18
MOBRIDGE       CLOUDY    25  20  81 NE13      29.75S WCI  14
RAPID CITY     FOG       25  23  92 E5        29.65F VSB 1   WCI  19
$$

  *****  SOME WEATHER IN NEARBY STATES *****

CITY           SKY/WX    TMP DP  RH WIND       PRES   REMARKS
GLASGOW MT     FAIR      10   6  84 E13       29.71F WCI  -5
GREAT FALLS MT FAIR      23  14  68 S13       29.55F WCI  11
CHEYENNE WY    FAIR      24  10  55 NW14      29.65F WCI  12
SCOTTSBLUFF NE FAIR      28  17  63 NW16      29.69F WCI  16
OMAHA NE       MOCLDY    46  41  82 SE9       29.56F
DES MOINES IA  CLOUDY    50  41  71 SE7       29.66F
DAVENPORT IA   LGT RAIN  51  47  86 S13G25    29.80S
CHICAGO IL     CLOUDY    49  45  86 S16       29.85F
EAU CLAIRE WI  CLOUDY    36  30  79 NE3       29.77F
LA CROSSE WI   MOCLDY    40  38  93 SE6       29.77S
$$

  *****  SOME NATIONAL WEATHER *****

CITY           SKY/WX    TMP DP  RH WIND       PRES   REMARKS
LA GUARDIA NY  CLOUDY    46  35  65 E6        30.35F
RALEIGH NC     FAIR      53  47  79 CALM      30.30S
ATLANTA GA     MOCLDY    52  46  80 E6        30.27S
NEW ORLEANS LA MOCLDY    71  70  96 S13G20    30.10S
OKLAHOMA CITY  MOCLDY    60  58  92 S12       29.75F FOG
ALBUQUERQUE NM MOCLDY    47  32  56 SW16      29.81F
SALT LAKE CITY MOCLDY    23  17  78 SE6       29.82S WCI  16
LOS ANGELES CA FAIR      53  39  59 NW6       29.90R
BOISE ID       FAIR      26  23  88 E8        29.79S WCI  18
SEATTLE WA     MOCLDY    34  33  96 NW3       29.82R
$$

*** WEATHER ACROSS MANITOBA...SASKATCHEWAN AND ONTARIO ***
                ***ONTARIO***

CITY           SKY/WX    TMP DP  RH WIND       PRES   REMARKS
GERALDTON      LGT SNOW  18  16  93 CALM      29.92F VSB 1
THUNDER BAY    CLOUDY    23  21  93 NW2       29.88F
SIOUX LOOKOUT  MOCLDY     5   3  92 CALM      29.93F
TORONTO        PTCLDY    36  30  80 E3        30.23F
BIG TROUT LK   CLEAR    -20 -24  83 SW3       30.03R
PICKLE LAKE    NOT AVBL
DRYDEN         CLOUDY    10   5  79 NE9       29.92S WCI  -2
KENORA         PTCLDY     3   0  85 NE7       29.94S WCI  -9
$$
                *** MANITOBA***

CITY           SKY/WX    TMP DP  RH WIND       PRES   REMARKS
BRANDON        PTCLDY    -9 -15  77 NW5       29.96S WCI -21
DAUPHIN        CLEAR     -2  -8  78 W8        29.97F WCI -17
ISLAND LAKE    CRYSTALS -18 -24  76 CALM      30.03S
PILOT MOUND      N/A      0  -2  92 N2          N/A
THE PAS        CLEAR    -11 -17  77 CALM      29.91S
THOMPSON       CRYSTALS -35 -40  74 CALM      30.00F
WINNIPEG       CLEAR      0  -6  78 NE3       30.02R
LYNN LAKE      CLEAR    -33 -40  68 SW2       29.90S
CHURCHILL      LGT SNOW -31 -38  68 W10       30.03R DRFTSNOWWCI -55
GILLAM         CLEAR    -31 -38  68 SW3       30.04R
$$
                ***SASKATCHEWAN***

CITY           SKY/WX    TMP DP  RH WIND       PRES   REMARKS
ESTEVAN        CLEAR     -4  -6  92 E9        29.86F WCI -20
KINDERSLEY     MOCLDY    12   7  79 NE5       29.70S WCI   4
LLOYDMINSTER   CLEAR      3   0  85 S12       29.70F WCI -13
PRINCE ALBERT  PTCLDY    -6 -11  77 CALM      29.82S
REGINA         CLOUDY     3   0  85 SE12      29.82F WCI -13
YORKTON        CLEAR     -6  -9  84 S7        29.88S WCI -20
N. BATTLEFORD  MOCLDY     3  -2  78 E6        29.78F WCI  -8
LA RONGE       CLEAR    -26 -33  68 S2        29.85F
SASKATOON      PTCLDY     5   0  78 S7        29.80F WCI  -7
SWIFT CURRENT  FLURRIES  12  10  92 S12       29.65F WCI  -2
$$
NOTE: THESE ARE AUTOMATED STATIONS WITH LIMITED QUALITY CONTROL
      "FAIR" INDICATES FEW OR NO CLOUDS BELOW 12,000 FEET WITH NO
      SIGNIFICANT WEATHER AND/OR OBSTRUCTIONS TO VISIBILITY.
      SKY/WX - SKY CONDITION AND SIGNIFICANT WEATHER.
      TMP - AIR TEMPERATURE.    DP   - DEWPOINT TEMPERATURE.
      RH  - RELATIVE HUMIDITY.  PRES - PRESSURE.
      HX  - HEAT INDEX.         WCI  - WIND CHILL INDEX.
$




USA.gov is the U.S. government's official web portal to all federal, state and local government web resources and services.